Location: Br�znic
(45.9167°N, 22.6500°E)
Time: 15:54:14
(UTC+00:00)

Cosmos 2322 - Pass Details

Date: 03 March 2021
Orbit: 841 x 853 km, 71.0° (Epoch: 11 April)

Event Time Altitude Azimuth Distance (km) Brightness Sun altitude
Rises 18:00:37 0° 192° (SSW) 3,408 6.9 -18.4°
Reaches altitude 10° 18:03:05 10° 188° (S) 2,476 6.1 -18.9°
Maximum altitude 18:08:39 58° 111° (ESE) 989 3.7 -19.8°
Drops below altitude 10° 18:14:15 10° 33° (NNE) 2,491 5.9 -20.8°
Sets 18:16:45 0° 30° (NNE) 3,430 6.7 -21.2°
